Regional Weather Roundup
Issued by NWS

Home | Current Version | Previous Version | Graphics & Text | Print | Product List | Glossary On
Versions: 1 2 3 4 5 6 7 8 9 10 11 12 13 14 15 16 17 18 19 20 21 22 23 24 25 26 27 28 29 30 31 32 33 34 35 36 37 38 39 40 41 42 43 44 45 46 47 48 49 50
426
ASUS45 KBOU 041307
RWRCO

WEATHER ROUNDUP FOR COLORADO
NATIONAL WEATHER SERVICE DENVER/BOULDER CO
700 AM MDT WED MAY 04 2016

NOTE: "FAIR" INDICATES FEW OR NO CLOUDS BELOW 12000 FEET WITH NO
SIGNIFICANT WEATHER AND/OR OBSTRUCTIONS TO VISIBILITY.

COZ001>005-013-030-031-041400-
...NORTHWEST COLORADO...

CITY           SKY/WX    TMP DP  RH WIND       PRES   REMARKS
CRAIG          FAIR      33  29  85 CALM      30.32R
HAYDEN         FAIR      39  27  60 E14       30.32R
MEEKER         FAIR      37  29  72 CALM      30.32R
MOUNT WERNER   NOT AVBL
STEAMBOAT SPGS FAIR      34  29  81 CALM      30.35R
WALDEN         FAIR      30  25  80 CALM      30.41R
$$

COZ006>008-011-041400-
...WEST CENTRAL VALLEYS...

CITY           SKY/WX    TMP DP  RH WIND       PRES   REMARKS
GRAND JUNCTION FAIR      48  31  51 SE8       30.24R
MONTROSE       FAIR      42  30  62 S8        30.32R
EAGLE          FAIR      34  27  75 E3        30.41R
RIFLE          FAIR      40  32  73 CALM      30.31R
DELTA          NOT AVBL
NUCLA          NOT AVBL
$$

COZ017>023-064>068-041400-
...SOUTHWEST COLORADO...

CITY           SKY/WX    TMP DP  RH WIND       PRES   REMARKS
DURANGO        FAIR      34  32  92 E3        30.36R
CORTEZ         FAIR      34  29  82 CALM      30.31R
PAGOSA SPRINGS FAIR      34  33  93 CALM      30.40R
TELLURIDE      FAIR      39  25  57 S7        30.45R
WOLF CREEK PAS FAIR      32  23  69 SW9       30.58R WCI  24
$$

COZ009-010-012-014-032>034-037-058>063-041400-
...CENTRAL COLORADO...

CITY           SKY/WX    TMP DP  RH WIND       PRES   REMARKS
ASPEN          FAIR      32  24  72 S3        30.38R
BUENA VISTA    FAIR      33  24  70 CALM      30.42R
COPPER MTN     NOT AVBL
BERTHOUD PASS  FAIR      27  18  69 NW16G24   30.53S WCI  14
COTTONWOOD PAS FAIR      43  12  28 W5        30.45R
GUNNISON       FAIR      28  21  74 CALM      30.46R
KREMMLING      FAIR      30  27  86 CALM      30.43R
LEADVILLE      FAIR      27  14  58 NE5       30.45R WCI  22
MONARCH PASS   FAIR      32  12  43 W16       30.64R WCI  21
SALIDA         FAIR      35  25  66 CALM      30.48R
SUNLIGHT       FAIR      41  19  42 CALM        N/A
WILKERSON PASS FAIR      34  14  44 NW10G16   30.52R WCI  26
$$

COZ069>075-041400-
...SAN LUIS VALLEY/SANGRE DE CRISTO MOUNTAINS...

CITY           SKY/WX    TMP DP  RH WIND       PRES   REMARKS
ALAMOSA        FAIR      35  29  78 CALM      30.40R
LA VETA PASS   FAIR      34  19  55 S9        30.46R WCI  26
SAGUACHE       NOT AVBL
$$

COZ035-036-038>040-041400-
...NORTHERN COLORADO FRONT RANGE...

CITY           SKY/WX    TMP DP  RH WIND       PRES   REMARKS
DENVER INTL AP FAIR      48  28  46 SW13      30.25R
DMNS CITY PARK   N/A     48  28  46 SE8       30.26S
AURORA         FAIR      45  31  57 S10       30.27R
FRONT RANGE AP SUNNY     46  30  53 S16       30.26
ERIE MUNI ARPT FAIR      40  36  83 CALM      30.25R
BOULDER MUN AP FAIR      48  34  57 CALM      30.24S
CENTENNIAL     FAIR      41  31  67 SE7       30.28R
BROOMFIELD     SUNNY     45  32  61 CALM      30.27R
FORT COLLINS   FAIR      43  34  70 N3        30.26R
LONGMONT       FAIR      44  35  71 CALM      30.27R HAZE
$$

COZ041-046-047-076>085-087-088-041400-
...PIKES PEAK/PALMER DIVIDE AND SOUTHERN FOOTHILLS...

CITY           SKY/WX    TMP DP  RH WIND       PRES   REMARKS
COLO. SPRINGS  FAIR      45  30  55 N8        30.31R
A. F. ACADEMY  FAIR      36  28  75 N9        30.31R
SCHRIEVER AFB  NOT AVBL
ELLICOTT       FAIR     N/A N/A N/A CALM      30.29R
FALCON         NOT AVBL
FORT CARSON    FAIR      44  29  57 NW8       30.28R
LIMON          FAIR      44  34  67 N5        30.27R
MONUMENT HILL  FAIR      39  27  60 SW7       30.34R
TRINIDAD       FAIR      44  29  55 SW16      30.31R
$$

COZ042>045-048>051-090-091-041400-
...NORTHEAST COLORADO...

CITY           SKY/WX    TMP DP  RH WIND       PRES   REMARKS
GREELEY ARPT   FAIR      39  36  87 CALM      30.26R
AKRON          FAIR      45  36  70 W14       30.22R
BURLINGTON     FAIR      47  37  68 NW10      30.21R
WRAY           NOT AVBL
STERLING       FAIR      39  37  93 S3        30.21R
HOLYOKE        NOT AVBL
FORT MORGAN    FAIR      44  37  74 W9        30.24R
$$

COZ086-089-092>099-041400-
...SOUTHEAST COLORADO...

CITY           SKY/WX    TMP DP  RH WIND       PRES   REMARKS
PUEBLO         FAIR      46  33  60 W7        30.27R
LA JUNTA       FAIR      47  36  65 W14       30.24R
LAMAR          FAIR      47  40  76 W12       30.21R
SPRINGFIELD      N/A     48  37  65 W10       30.22R
$$




USA.gov is the U.S. government's official web portal to all federal, state and local government web resources and services.